Volver al catálogo

COSMOS 249 DEB

ActivoLEO
NORAD 3793·DEBRIS·🇷🇺 Russia

Lanzado Oct 20, 1968 desde Baikonur Cosmodrome

Loading…

Próximos Pases (próximas 24 horas)

TLE

EnvejeciendoSource: Space-Track

Época: Sep 12, 2026, 17:48 UTC

1 03793U 68091BA  26255.74204287  .00000474  00000-0  50877-3 0  9995
2 03793  62.2189  24.4287 0609872 355.4717   4.0915 13.21794699712957

Sigue COSMOS 249 DEB en tiempo real con AllMySat

Download on the App Store